Tracking 32936 objects as of 17-Jan-2026
HD Live streaming from Space Station
objects crossing your sky now

TIANLIAN-2 05

Track TIANLIAN-2 05 now!


NORAD ID: 63662
Int'l Code: 2025-084A
Perigee: 35,782.1 km
Apogee: 35,805.0 km
Inclination: 4.8 °
Period: 1,436.1 minutes
Semi major axis: 42164 km
RCS: Unknown
Launch date: April 27, 2025
Source: People's Republic of China (PRC)
Launch site: Xichang Space Center, China (XSC)
Your satellite tracking list
Your tracking list is empty




NASA's NSSDC Master Catalog

Two Line Element Set (TLE):
1 63662U 25084A   26016.51804726  .00000148  00000-0  00000-0 0  9993
2 63662   4.8352 281.4899 0002718  56.7242 344.5807  1.00272586  2860
Source of the keplerian elements: AFSPC